Location: Dumpton Point
(51.3500°N, 1.4433°E)
Time: 11:08:04
(UTC+00:00)

Explorer 7 - Visible Passes

Search period start: 18 April 2021 00:00
Search period end: 28 April 2021 00:00
Orbit: 484 x 677 km, 50.3° (Epoch: 17 April)

Date Brightness Start Highest point End Pass type
(mag) Time Alt. Az. Time Alt. Az. Time Alt. Az.
18 Apr 9.0 03:09:24 15° S 03:09:24 15° S 03:10:39 10° S visible
18 Apr 7.8 20:27:19 10° SSW 20:30:47 27° SE 20:32:01 23° ESE visible
18 Apr 8.5 22:06:38 10° WSW 22:08:25 24° WSW 22:08:25 24° WSW visible
19 Apr 7.4 20:31:18 10° SW 20:35:03 35° SSE 20:37:33 19° E visible
19 Apr 7.6 22:11:02 10° WSW 22:13:54 42° WSW 22:13:54 42° WSW visible
20 Apr 7.1 20:35:28 10° SW 20:39:23 46° SSE 20:42:33 16° E visible
20 Apr 7.2 22:15:29 10° W 22:18:52 57° WSW 22:18:52 57° WSW visible
21 Apr 6.9 20:39:44 10° WSW 20:43:45 57° SSE 20:47:11 15° E visible
21 Apr 7.1 22:19:55 10° W 22:23:29 62° WSW 22:23:29 62° WSW visible
22 Apr 6.8 20:44:05 10° WSW 20:48:10 68° SSE 20:51:35 16° E visible
22 Apr 7.2 22:24:22 10° W 22:27:53 59° WSW 22:27:53 59° WSW visible
23 Apr 6.8 20:48:30 10° WSW 20:52:35 75° S 20:55:51 17° E visible
23 Apr 7.3 22:28:49 10° W 22:32:09 51° WSW 22:32:09 51° WSW visible
24 Apr 6.8 20:52:55 10° W 20:57:02 79° S 21:00:02 19° E visible
24 Apr 7.7 22:33:16 10° W 22:36:18 42° WSW 22:36:18 42° WSW visible
25 Apr 6.8 20:57:22 10° W 21:01:28 78° S 21:04:10 22° E visible
25 Apr 8.0 22:37:45 10° W 22:40:26 33° WSW 22:40:26 33° WSW visible
26 Apr 6.8 21:01:48 10° W 21:05:54 72° S 21:08:15 26° ESE visible
26 Apr 8.4 22:42:16 10° W 22:44:32 26° WSW 22:44:32 26° WSW visible
27 Apr 6.9 21:06:15 10° W 21:10:19 63° SSW 21:12:20 29° ESE visible
27 Apr 8.8 22:46:52 10° W 22:48:37 19° WSW 22:48:37 19° WSW visible
